Weather in Husar

Denmark     62°01′15″N   6°46′10″W
В апреле 2022 года жителям России запретили посещать сайт meteo.paraplan.net по решению Генеральной прокуратуры. Аудитория сайта уменьшилась в 10 раз. Владельцы сайта не видят смысла в поддержке погодного сервера в таких условиях. Сайт будет закрыт в октябре.
temp.,
°C
wind,
m/s
gust,
m/s
humid.,
%
clouds,
%
prec.,
mm/h
press.,
hPa
HPBL,
m
6 october, thu
thu601:00+9wsw14197819 0.1 9881535
04:00+9wsw11148483 0.4 9881122
07:00+9wsw11118287 0.9 988879
10:00+9wsw121485100 0.6 9891227
13:00+9wsw16208462 2.2 9891351
16:00+9wsw15188321 1.4 9921363
19:00+9wsw12157817 1.6 9921200
22:00+9sw810804 0.0 991890
7 october, fri
fri701:00+9sw798171 0.1 990777
04:00+9sw5682100 1.1 989613
07:00+8w3388100 4.1 988428
10:00+9nw487455 0.6 990867
13:00+8nw586783 0.6 9931260
16:00+8nw6107287 0.1 9961246
19:00+7nw71179100 0.4 9991203
22:00+6wnw597486 0.1 10021066
8 october, sat
sat801:00+6wnw5870100 0.1 10051018
04:00+7wsw6871100 0.0 1005974
07:00+8sw9107598 0.0 1004905
10:00+9wsw8117799 0.2 1003937
13:00+9sw91280100 0.3 10021020
16:00+10sw121595100 1.5 10001117
19:00+10sw141793100 4.2 998923
22:00+10sw141993100 1.4 998960
9 october, sun
sun901:00+10sw141891100 2.9 997886
04:00+10ssw131892100 0.6 993858
07:00+10ssw172394100 3.8 9891100
10:00+8wsw101491100 8.6 9861099
13:00+9wsw111470100 10.4 9861379
16:00+9wsw1113696 0.0 9861403
19:00+8wsw1012697 0.1 9861282
22:00+8sw9117795 0.3 9851075
10 october, mon
mon1001:00+5nw14188893 1.5 9881131
04:00+6nw12166880 0.4 9941704
07:00+6wnw1118615 0.4 10001805
10:00+5wnw9126979 0.0 10041307
13:00+5w598048 0.1 1007947
16:00+7w7116846 0.1 10091433
19:00+8w7126698 0.1 10101555
22:00+8wsw697487 0.1 1010906